Year,Month,Day,Hour,Minute,Value (Times are PST for temperature in C)
2016,04,26,00,00,7.60
2016,04,26,00,01,7.50
2016,04,26,00,02,7.50
2016,04,26,00,03,7.40
2016,04,26,00,04,7.40
2016,04,26,00,05,7.40
2016,04,26,00,06,7.40
2016,04,26,00,07,7.40
2016,04,26,00,08,7.30
2016,04,26,00,09,7.30
2016,04,26,00,10,7.30
2016,04,26,00,11,7.20
2016,04,26,00,12,7.20
2016,04,26,00,13,7.20
2016,04,26,00,14,7.20
2016,04,26,00,15,7.10
2016,04,26,00,16,7.10
2016,04,26,00,17,7.10
2016,04,26,00,18,7.00
2016,04,26,00,19,7.10
2016,04,26,00,20,7.10
2016,04,26,00,21,7.10
2016,04,26,00,22,7.10
2016,04,26,00,23,7.10
2016,04,26,00,24,7.10
2016,04,26,00,25,7.10
2016,04,26,00,26,7.10
2016,04,26,00,27,7.10
2016,04,26,00,28,7.10
2016,04,26,00,29,7.10
2016,04,26,00,30,7.00
2016,04,26,00,31,7.00
2016,04,26,00,32,7.00
2016,04,26,00,33,7.10
2016,04,26,00,34,7.00
2016,04,26,00,35,7.00
2016,04,26,00,36,7.00
2016,04,26,00,37,7.00
2016,04,26,00,38,6.90
2016,04,26,00,39,6.90
2016,04,26,00,40,6.90
2016,04,26,00,41,6.90
2016,04,26,00,42,6.90
2016,04,26,00,43,6.90
2016,04,26,00,44,6.80
2016,04,26,00,45,6.80
2016,04,26,00,46,6.80
2016,04,26,00,47,6.80
2016,04,26,00,48,6.80
2016,04,26,00,49,6.80
2016,04,26,00,50,6.70
2016,04,26,00,51,6.70
2016,04,26,00,52,6.70
2016,04,26,00,53,6.60
2016,04,26,00,54,6.60
2016,04,26,00,55,6.60
2016,04,26,00,56,6.60
2016,04,26,00,57,6.60
2016,04,26,00,58,6.70
2016,04,26,00,59,6.70
2016,04,26,01,00,6.80
2016,04,26,01,01,6.80
2016,04,26,01,02,6.80
2016,04,26,01,03,6.80
2016,04,26,01,04,6.80
2016,04,26,01,05,6.80
2016,04,26,01,06,6.80
2016,04,26,01,07,6.70
2016,04,26,01,08,6.70
2016,04,26,01,09,6.70
2016,04,26,01,10,6.60
2016,04,26,01,11,6.60
2016,04,26,01,12,6.50
2016,04,26,01,13,6.50
2016,04,26,01,14,6.40
2016,04,26,01,15,6.40
2016,04,26,01,16,6.40
2016,04,26,01,17,6.30
2016,04,26,01,18,6.30
2016,04,26,01,19,6.30
2016,04,26,01,20,6.30
2016,04,26,01,21,6.30
2016,04,26,01,22,6.30
2016,04,26,01,23,6.40
2016,04,26,01,24,6.40
2016,04,26,01,25,6.40
2016,04,26,01,26,6.40
2016,04,26,01,27,6.40
2016,04,26,01,28,6.30
2016,04,26,01,29,6.30
2016,04,26,01,30,6.20
2016,04,26,01,31,6.20
2016,04,26,01,32,6.20
2016,04,26,01,33,6.10
2016,04,26,01,34,6.10
2016,04,26,01,35,6.00
2016,04,26,01,36,6.00
2016,04,26,01,37,6.00
2016,04,26,01,38,6.00
2016,04,26,01,39,6.00
2016,04,26,01,40,6.00
2016,04,26,01,41,6.00
2016,04,26,01,42,6.10
2016,04,26,01,43,6.20
2016,04,26,01,44,6.30
2016,04,26,01,45,6.40
2016,04,26,01,46,6.50
2016,04,26,01,47,6.60
2016,04,26,01,48,6.80
2016,04,26,01,49,6.90
2016,04,26,01,50,6.90
2016,04,26,01,51,6.90
2016,04,26,01,52,6.80
2016,04,26,01,53,6.80
2016,04,26,01,54,6.70
2016,04,26,01,55,6.60
2016,04,26,01,56,6.60
2016,04,26,01,57,6.50
2016,04,26,01,58,6.40
2016,04,26,01,59,6.30
2016,04,26,02,00,6.30
2016,04,26,02,01,6.30
2016,04,26,02,02,6.30
2016,04,26,02,03,6.20
2016,04,26,02,04,6.20
2016,04,26,02,05,6.20
2016,04,26,02,06,6.20
2016,04,26,02,07,6.20
2016,04,26,02,08,6.20
2016,04,26,02,09,6.20
2016,04,26,02,10,6.20
2016,04,26,02,11,6.20
2016,04,26,02,12,6.20
2016,04,26,02,13,6.20
2016,04,26,02,14,6.20
2016,04,26,02,15,6.20
2016,04,26,02,16,6.20
2016,04,26,02,17,6.20
2016,04,26,02,18,6.20
2016,04,26,02,19,6.10
2016,04,26,02,20,6.10
2016,04,26,02,21,6.10
2016,04,26,02,22,6.10
2016,04,26,02,23,6.10
2016,04,26,02,24,6.10
2016,04,26,02,25,6.00
2016,04,26,02,26,6.00
2016,04,26,02,27,6.00
2016,04,26,02,28,6.00
2016,04,26,02,29,6.00
2016,04,26,02,30,5.90
2016,04,26,02,31,5.90
2016,04,26,02,32,5.90
2016,04,26,02,33,5.90
2016,04,26,02,34,5.80
2016,04,26,02,35,5.80
2016,04,26,02,36,5.80
2016,04,26,02,37,5.70
2016,04,26,02,38,5.70
2016,04,26,02,39,5.60
2016,04,26,02,40,5.50
2016,04,26,02,41,5.50
2016,04,26,02,42,5.50
2016,04,26,02,43,5.50
2016,04,26,02,44,5.50
2016,04,26,02,45,5.40
2016,04,26,02,46,5.40
2016,04,26,02,47,5.30
2016,04,26,02,48,5.30
2016,04,26,02,49,5.20
2016,04,26,02,50,5.20
2016,04,26,02,51,5.20
2016,04,26,02,52,5.20
2016,04,26,02,53,5.20
2016,04,26,02,54,5.20
2016,04,26,02,55,5.20
2016,04,26,02,56,5.10
2016,04,26,02,57,5.10
2016,04,26,02,58,5.10
2016,04,26,02,59,5.00
2016,04,26,03,00,5.00
2016,04,26,03,01,4.90
2016,04,26,03,02,4.90
2016,04,26,03,03,4.80
2016,04,26,03,04,4.80
2016,04,26,03,05,4.80
2016,04,26,03,06,4.80
2016,04,26,03,07,4.80
2016,04,26,03,08,4.80
2016,04,26,03,09,4.80
2016,04,26,03,10,4.80
2016,04,26,03,11,4.80
2016,04,26,03,12,4.80
2016,04,26,03,13,4.70
2016,04,26,03,14,4.70
2016,04,26,03,15,4.70
2016,04,26,03,16,4.70
2016,04,26,03,17,4.70
2016,04,26,03,18,4.60
2016,04,26,03,19,4.60
2016,04,26,03,20,4.50
2016,04,26,03,21,4.50
2016,04,26,03,22,4.50
2016,04,26,03,23,4.40
2016,04,26,03,24,4.40
2016,04,26,03,25,4.40
2016,04,26,03,26,4.40
2016,04,26,03,27,4.40
2016,04,26,03,28,4.30
2016,04,26,03,29,4.40
2016,04,26,03,30,4.30
2016,04,26,03,31,4.30
2016,04,26,03,32,4.30
2016,04,26,03,33,4.30
2016,04,26,03,34,4.30
2016,04,26,03,35,4.30
2016,04,26,03,36,4.40
2016,04,26,03,37,4.40
2016,04,26,03,38,4.40
2016,04,26,03,39,4.40
2016,04,26,03,40,4.40
2016,04,26,03,41,4.30
2016,04,26,03,42,4.30
2016,04,26,03,43,4.30
2016,04,26,03,44,4.30
2016,04,26,03,45,4.30
2016,04,26,03,46,4.30
2016,04,26,03,47,4.30
2016,04,26,03,48,4.30
2016,04,26,03,49,4.30
2016,04,26,03,50,4.30
2016,04,26,03,51,4.20
2016,04,26,03,52,4.30
2016,04,26,03,53,4.20
2016,04,26,03,54,4.20
2016,04,26,03,55,4.20
2016,04,26,03,56,4.20
2016,04,26,03,57,4.10
2016,04,26,03,58,4.10
2016,04,26,03,59,4.00
2016,04,26,04,00,4.00
2016,04,26,04,01,3.90
2016,04,26,04,02,3.90
2016,04,26,04,03,3.90
2016,04,26,04,04,3.90
2016,04,26,04,05,3.90
2016,04,26,04,06,3.90
2016,04,26,04,07,3.90
2016,04,26,04,08,3.90
2016,04,26,04,09,3.90
2016,04,26,04,10,3.90
2016,04,26,04,11,3.90
2016,04,26,04,12,3.90
2016,04,26,04,13,3.80
2016,04,26,04,14,3.80
2016,04,26,04,15,3.80
2016,04,26,04,16,3.80
2016,04,26,04,17,3.80
2016,04,26,04,18,3.80
2016,04,26,04,19,3.70
2016,04,26,04,20,3.70
2016,04,26,04,21,3.80
2016,04,26,04,22,3.80
2016,04,26,04,23,3.80
2016,04,26,04,24,3.70
2016,04,26,04,25,3.70
2016,04,26,04,26,3.70
2016,04,26,04,27,3.70
2016,04,26,04,28,3.70
2016,04,26,04,29,3.70
2016,04,26,04,30,3.70
2016,04,26,04,31,3.70
2016,04,26,04,32,3.70
2016,04,26,04,33,3.70
2016,04,26,04,34,3.70
2016,04,26,04,35,3.70
2016,04,26,04,36,3.70
2016,04,26,04,37,3.70
2016,04,26,04,38,3.70
2016,04,26,04,39,3.70
2016,04,26,04,40,3.70
2016,04,26,04,41,3.70
2016,04,26,04,42,3.70
2016,04,26,04,43,3.70
2016,04,26,04,44,3.60
2016,04,26,04,45,3.60
2016,04,26,04,46,3.50
2016,04,26,04,47,3.50
2016,04,26,04,48,3.40
2016,04,26,04,49,3.40
2016,04,26,04,50,3.40
2016,04,26,04,51,3.30
2016,04,26,04,52,3.30
2016,04,26,04,53,3.30
2016,04,26,04,54,3.30
2016,04,26,04,55,3.30
2016,04,26,04,56,3.30
2016,04,26,04,57,3.30
2016,04,26,04,58,3.20
2016,04,26,04,59,3.20
2016,04,26,05,00,3.20
2016,04,26,05,01,3.20
2016,04,26,05,02,3.30
2016,04,26,05,03,3.30
2016,04,26,05,04,3.20
2016,04,26,05,05,3.20
2016,04,26,05,06,3.20
2016,04,26,05,07,3.20
2016,04,26,05,08,3.20
2016,04,26,05,09,3.10
2016,04,26,05,10,3.20
2016,04,26,05,11,3.20
2016,04,26,05,12,3.20
2016,04,26,05,13,3.20
2016,04,26,05,14,3.20
2016,04,26,05,15,3.20
2016,04,26,05,16,3.20
2016,04,26,05,17,3.20
2016,04,26,05,18,3.20
2016,04,26,05,19,3.20
2016,04,26,05,20,3.10
2016,04,26,05,21,3.10
2016,04,26,05,22,3.10
2016,04,26,05,23,3.10
2016,04,26,05,24,3.00
2016,04,26,05,25,3.00
2016,04,26,05,26,3.00
2016,04,26,05,27,3.00
2016,04,26,05,28,3.00
2016,04,26,05,29,3.00
2016,04,26,05,30,3.00
2016,04,26,05,31,3.00
2016,04,26,05,32,3.10
2016,04,26,05,33,3.10
2016,04,26,05,34,3.10
2016,04,26,05,35,3.10
2016,04,26,05,36,3.10
2016,04,26,05,37,3.10
2016,04,26,05,38,3.10
2016,04,26,05,39,3.10
2016,04,26,05,40,3.10
2016,04,26,05,41,3.00
2016,04,26,05,42,3.00
2016,04,26,05,43,2.90
2016,04,26,05,44,2.90
2016,04,26,05,45,2.90
2016,04,26,05,46,2.90
2016,04,26,05,47,2.80
2016,04,26,05,48,2.80
2016,04,26,05,49,2.80
2016,04,26,05,50,2.80
2016,04,26,05,51,2.80
2016,04,26,05,52,2.80
2016,04,26,05,53,2.80
2016,04,26,05,54,2.80
2016,04,26,05,55,2.70
2016,04,26,05,56,2.70
2016,04,26,05,57,2.70
2016,04,26,05,58,2.70
2016,04,26,05,59,2.70
2016,04,26,06,00,2.70
2016,04,26,06,01,2.70
2016,04,26,06,02,2.60
2016,04,26,06,03,2.60
2016,04,26,06,04,2.60
2016,04,26,06,05,2.70
2016,04,26,06,06,2.70
2016,04,26,06,07,2.70
2016,04,26,06,08,2.80
2016,04,26,06,09,2.80
2016,04,26,06,10,2.80
2016,04,26,06,11,2.80
2016,04,26,06,12,2.80
2016,04,26,06,13,2.80
2016,04,26,06,14,2.70
2016,04,26,06,15,2.70
2016,04,26,06,16,2.70
2016,04,26,06,17,2.70
2016,04,26,06,18,2.70
2016,04,26,06,19,2.80
2016,04,26,06,20,2.80
2016,04,26,06,21,2.80
2016,04,26,06,22,2.80
2016,04,26,06,23,2.90
2016,04,26,06,24,2.90
2016,04,26,06,25,2.90
2016,04,26,06,26,2.90
2016,04,26,06,27,2.90
2016,04,26,06,28,3.00
2016,04,26,06,29,3.00
2016,04,26,06,30,3.00
2016,04,26,06,31,3.10
2016,04,26,06,32,3.10
2016,04,26,06,33,3.10
2016,04,26,06,34,3.20
2016,04,26,06,35,3.20
2016,04,26,06,36,3.20
2016,04,26,06,37,3.30
2016,04,26,06,38,3.30
2016,04,26,06,39,3.30
2016,04,26,06,40,3.40
2016,04,26,06,41,3.40
2016,04,26,06,42,3.50
2016,04,26,06,43,3.60
2016,04,26,06,44,3.70
2016,04,26,06,45,3.80
2016,04,26,06,46,3.80
2016,04,26,06,47,3.90
2016,04,26,06,48,3.90
2016,04,26,06,49,4.00
2016,04,26,06,50,4.10
2016,04,26,06,51,4.20
2016,04,26,06,52,4.30
2016,04,26,06,53,4.40
2016,04,26,06,54,4.50
2016,04,26,06,55,4.60
2016,04,26,06,56,4.70
2016,04,26,06,57,4.80
2016,04,26,06,58,4.90
2016,04,26,06,59,5.00
2016,04,26,07,00,5.10
2016,04,26,07,01,5.20
2016,04,26,07,02,5.20
2016,04,26,07,03,5.30
2016,04,26,07,04,5.30
2016,04,26,07,05,5.30
2016,04,26,07,06,5.30
2016,04,26,07,07,5.40
2016,04,26,07,08,5.40
2016,04,26,07,09,5.40
2016,04,26,07,10,5.50
2016,04,26,07,11,5.50
2016,04,26,07,12,5.60
2016,04,26,07,13,5.60
2016,04,26,07,14,5.60
2016,04,26,07,15,5.60
2016,04,26,07,16,5.70
2016,04,26,07,17,5.70
2016,04,26,07,18,5.70
2016,04,26,07,19,5.70
2016,04,26,07,20,5.70
2016,04,26,07,21,5.80
2016,04,26,07,22,5.80
2016,04,26,07,23,5.80
2016,04,26,07,24,5.80
2016,04,26,07,25,5.90
2016,04,26,07,26,5.90
2016,04,26,07,27,6.00
2016,04,26,07,28,6.10
2016,04,26,07,29,6.10
2016,04,26,07,30,6.20
2016,04,26,07,31,6.30
2016,04,26,07,32,6.30
2016,04,26,07,33,6.40
2016,04,26,07,34,6.40
2016,04,26,07,35,6.50
2016,04,26,07,36,6.60
2016,04,26,07,37,6.60
2016,04,26,07,38,6.70
2016,04,26,07,39,6.70
2016,04,26,07,40,6.80
2016,04,26,07,41,6.80
2016,04,26,07,42,6.80
2016,04,26,07,43,6.90
2016,04,26,07,44,6.90
2016,04,26,07,45,7.00
2016,04,26,07,46,7.00
2016,04,26,07,47,7.00
2016,04,26,07,48,7.10
2016,04,26,07,49,7.10
2016,04,26,07,50,7.10
2016,04,26,07,51,7.10
2016,04,26,07,52,7.20
2016,04,26,07,53,7.20
2016,04,26,07,54,7.20
2016,04,26,07,55,7.20
2016,04,26,07,56,7.20
2016,04,26,07,57,7.20
2016,04,26,07,58,7.20
2016,04,26,07,59,7.20
2016,04,26,08,00,7.30
2016,04,26,08,01,7.30
2016,04,26,08,02,7.30
2016,04,26,08,03,7.40
2016,04,26,08,04,7.40
2016,04,26,08,05,7.50
2016,04,26,08,06,7.50
2016,04,26,08,07,7.60
2016,04,26,08,08,7.60
2016,04,26,08,09,7.60
2016,04,26,08,10,7.60
2016,04,26,08,11,7.70
2016,04,26,08,12,7.70
2016,04,26,08,13,7.70
2016,04,26,08,14,7.70
2016,04,26,08,15,7.70
2016,04,26,08,16,7.70
2016,04,26,08,17,7.70
2016,04,26,08,18,7.80
2016,04,26,08,19,7.80
2016,04,26,08,20,7.80
2016,04,26,08,21,7.80
2016,04,26,08,22,7.90
2016,04,26,08,23,8.00
2016,04,26,08,24,8.00
2016,04,26,08,25,8.10
2016,04,26,08,26,8.10
2016,04,26,08,27,8.20
2016,04,26,08,28,8.30
2016,04,26,08,29,8.30
2016,04,26,08,30,8.30
2016,04,26,08,31,8.40
2016,04,26,08,32,8.50
2016,04,26,08,33,8.60
2016,04,26,08,34,8.70
2016,04,26,08,35,8.80
2016,04,26,08,36,8.90
2016,04,26,08,37,9.10
2016,04,26,08,38,9.20
2016,04,26,08,39,9.30
2016,04,26,08,40,9.40
2016,04,26,08,41,9.50
2016,04,26,08,42,9.60
2016,04,26,08,43,9.60
2016,04,26,08,44,9.60
2016,04,26,08,45,9.70
2016,04,26,08,46,9.70
2016,04,26,08,47,9.70
2016,04,26,08,48,9.60
2016,04,26,08,49,9.60
2016,04,26,08,50,9.40
2016,04,26,08,51,9.40
2016,04,26,08,52,9.30
2016,04,26,08,53,9.30
2016,04,26,08,54,9.30
2016,04,26,08,55,9.40
2016,04,26,08,56,9.40
2016,04,26,08,57,9.50
2016,04,26,08,58,9.50
2016,04,26,08,59,9.60
2016,04,26,09,00,9.70
2016,04,26,09,01,9.70
2016,04,26,09,02,9.80
2016,04,26,09,03,9.80
2016,04,26,09,04,9.80
2016,04,26,09,05,9.90
2016,04,26,09,06,9.90
2016,04,26,09,07,10.00
2016,04,26,09,08,10.10
2016,04,26,09,09,10.10
2016,04,26,09,10,10.10
2016,04,26,09,11,10.20
2016,04,26,09,12,10.30
2016,04,26,09,13,10.30
2016,04,26,09,14,10.30
2016,04,26,09,15,10.30
2016,04,26,09,16,10.30
2016,04,26,09,17,10.30
2016,04,26,09,18,10.40
2016,04,26,09,19,10.40
2016,04,26,09,20,10.50
2016,04,26,09,21,10.60
2016,04,26,09,22,10.60
2016,04,26,09,23,10.60
2016,04,26,09,24,10.60
2016,04,26,09,25,10.60
2016,04,26,09,26,10.60
2016,04,26,09,27,10.70
2016,04,26,09,28,10.70
2016,04,26,09,29,10.70
2016,04,26,09,30,10.80
2016,04,26,09,31,10.80
2016,04,26,09,32,10.80
2016,04,26,09,33,10.80
2016,04,26,09,34,10.80
2016,04,26,09,35,10.90
2016,04,26,09,36,10.90
2016,04,26,09,37,10.90
2016,04,26,09,38,11.00
2016,04,26,09,39,11.10
2016,04,26,09,40,11.10
2016,04,26,09,41,11.10
2016,04,26,09,42,11.10
2016,04,26,09,43,11.10
2016,04,26,09,44,11.20
2016,04,26,09,45,11.20
2016,04,26,09,46,11.10
2016,04,26,09,47,11.20
2016,04,26,09,48,11.20
2016,04,26,09,49,11.20
2016,04,26,09,50,11.30
2016,04,26,09,51,11.40
2016,04,26,09,52,11.50
2016,04,26,09,53,11.50
2016,04,26,09,54,11.50
2016,04,26,09,55,11.50
2016,04,26,09,56,11.50
2016,04,26,09,57,11.60
2016,04,26,09,58,11.70
2016,04,26,09,59,11.80
2016,04,26,10,00,11.80
2016,04,26,10,01,11.90
2016,04,26,10,02,12.00
2016,04,26,10,03,12.10
2016,04,26,10,04,12.10
2016,04,26,10,05,12.20
2016,04,26,10,06,12.20
2016,04,26,10,07,12.20
2016,04,26,10,08,12.20
2016,04,26,10,09,12.20
2016,04,26,10,10,12.20
2016,04,26,10,11,12.20
2016,04,26,10,12,12.20
2016,04,26,10,13,12.10
2016,04,26,10,14,12.10
2016,04,26,10,15,12.00
2016,04,26,10,16,11.90
2016,04,26,10,17,11.90
2016,04,26,10,18,12.00
2016,04,26,10,19,12.00
2016,04,26,10,20,12.20
2016,04,26,10,21,12.30
2016,04,26,10,22,12.40
2016,04,26,10,23,12.60
2016,04,26,10,24,12.70
2016,04,26,10,25,12.80
2016,04,26,10,26,12.80
2016,04,26,10,27,12.70
2016,04,26,10,28,12.70
2016,04,26,10,29,12.70
2016,04,26,10,30,12.80
2016,04,26,10,31,12.80
2016,04,26,10,32,12.70
2016,04,26,10,33,12.60
2016,04,26,10,34,12.50
2016,04,26,10,35,12.50
2016,04,26,10,36,12.60
2016,04,26,10,37,12.60
2016,04,26,10,38,12.60
2016,04,26,10,39,12.70
2016,04,26,10,40,12.80
2016,04,26,10,41,12.80
2016,04,26,10,42,12.80
2016,04,26,10,43,12.80
2016,04,26,10,44,12.80
2016,04,26,10,45,13.00
2016,04,26,10,46,13.10
2016,04,26,10,47,13.20
2016,04,26,10,48,13.30
2016,04,26,10,49,13.30
2016,04,26,10,50,13.30
2016,04,26,10,51,13.20
2016,04,26,10,52,13.20
2016,04,26,10,53,13.10
2016,04,26,10,54,13.10
2016,04,26,10,55,13.10
2016,04,26,10,56,13.00
2016,04,26,10,57,13.00
2016,04,26,10,58,13.10
2016,04,26,10,59,13.10
2016,04,26,11,00,13.10
2016,04,26,11,01,13.20
2016,04,26,11,02,13.30
2016,04,26,11,03,13.40
2016,04,26,11,04,13.40
2016,04,26,11,05,13.50
2016,04,26,11,06,13.50
2016,04,26,11,07,13.50
2016,04,26,11,08,13.50
2016,04,26,11,09,13.50
2016,04,26,11,10,13.50
2016,04,26,11,11,13.50
2016,04,26,11,12,13.40
2016,04,26,11,13,13.40
2016,04,26,11,14,13.30
2016,04,26,11,15,13.30
2016,04,26,11,16,13.30
2016,04,26,11,17,13.40
2016,04,26,11,18,13.40
2016,04,26,11,19,13.40
2016,04,26,11,20,13.40
2016,04,26,11,21,13.40
2016,04,26,11,22,13.40
2016,04,26,11,23,13.50
2016,04,26,11,24,13.60
2016,04,26,11,25,13.70
2016,04,26,11,26,13.70
2016,04,26,11,27,13.70
2016,04,26,11,28,13.80
2016,04,26,11,29,13.80
2016,04,26,11,30,13.80
2016,04,26,11,31,13.60
2016,04,26,11,32,13.50
2016,04,26,11,33,13.40
2016,04,26,11,34,13.40
2016,04,26,11,35,13.40
2016,04,26,11,36,13.40
2016,04,26,11,37,13.50
2016,04,26,11,38,13.50
2016,04,26,11,39,13.60
2016,04,26,11,40,13.60
2016,04,26,11,41,13.60
2016,04,26,11,42,13.60
2016,04,26,11,43,13.60
2016,04,26,11,44,13.60
2016,04,26,11,45,13.80
2016,04,26,11,46,13.90
2016,04,26,11,47,14.10
2016,04,26,11,48,14.10
2016,04,26,11,49,14.00
2016,04,26,11,50,13.80
2016,04,26,11,51,13.70
2016,04,26,11,52,13.70
2016,04,26,11,53,13.70
2016,04,26,11,54,13.70
2016,04,26,11,55,13.80
2016,04,26,11,56,13.90
2016,04,26,11,57,13.90
2016,04,26,11,58,13.80
2016,04,26,11,59,13.80
2016,04,26,12,00,13.60
2016,04,26,12,01,13.60
2016,04,26,12,02,13.50
2016,04,26,12,03,13.50
2016,04,26,12,04,13.60
2016,04,26,12,05,13.70
2016,04,26,12,06,13.90
2016,04,26,12,07,14.00
2016,04,26,12,08,13.90
2016,04,26,12,09,14.00
2016,04,26,12,10,14.00
2016,04,26,12,11,14.10
2016,04,26,12,12,14.10
2016,04,26,12,13,14.10
2016,04,26,12,14,14.00
2016,04,26,12,15,13.90
2016,04,26,12,16,13.80
2016,04,26,12,17,13.80
2016,04,26,12,18,13.80
2016,04,26,12,19,13.70
2016,04,26,12,20,13.70
2016,04,26,12,21,13.70
2016,04,26,12,22,13.70
2016,04,26,12,23,13.70
2016,04,26,12,24,13.80
2016,04,26,12,25,13.80
2016,04,26,12,26,13.80
2016,04,26,12,27,13.80
2016,04,26,12,28,13.80
2016,04,26,12,29,13.80
2016,04,26,12,30,13.80
2016,04,26,12,31,13.90
2016,04,26,12,32,14.00
2016,04,26,12,33,14.10
2016,04,26,12,34,14.10
2016,04,26,12,35,14.20
2016,04,26,12,36,14.10
2016,04,26,12,37,14.00
2016,04,26,12,38,13.90
2016,04,26,12,39,14.00
2016,04,26,12,40,14.00
2016,04,26,12,41,13.90
2016,04,26,12,42,13.80
2016,04,26,12,43,13.90
2016,04,26,12,44,13.90
2016,04,26,12,45,14.00
2016,04,26,12,46,14.00
2016,04,26,12,47,13.90
2016,04,26,12,48,13.90
2016,04,26,12,49,14.00
2016,04,26,12,50,14.10
2016,04,26,12,51,14.10
2016,04,26,12,52,14.20
2016,04,26,12,53,14.20
2016,04,26,12,54,14.20
2016,04,26,12,55,14.10
2016,04,26,12,56,14.20
2016,04,26,12,57,14.20
2016,04,26,12,58,14.20
2016,04,26,12,59,14.20
2016,04,26,13,00,14.20
2016,04,26,13,01,14.20
2016,04,26,13,02,14.20
2016,04,26,13,03,14.20
2016,04,26,13,04,14.30
2016,04,26,13,05,14.30
2016,04,26,13,06,14.40
2016,04,26,13,07,14.40
2016,04,26,13,08,14.40
2016,04,26,13,09,14.50
2016,04,26,13,10,14.60
2016,04,26,13,11,14.70
2016,04,26,13,12,14.70
2016,04,26,13,13,14.70
2016,04,26,13,14,14.70
2016,04,26,13,15,14.70
2016,04,26,13,16,14.70
2016,04,26,13,17,14.80
2016,04,26,13,18,14.70
2016,04,26,13,19,14.70
2016,04,26,13,20,14.70
2016,04,26,13,21,14.70
2016,04,26,13,22,14.50
2016,04,26,13,23,14.40
2016,04,26,13,24,14.30
2016,04,26,13,25,14.40
2016,04,26,13,26,14.40
2016,04,26,13,27,14.40
2016,04,26,13,28,14.50
2016,04,26,13,29,14.40
2016,04,26,13,30,14.20
2016,04,26,13,31,14.20
2016,04,26,13,32,14.10
2016,04,26,13,33,14.00
2016,04,26,13,34,13.90
2016,04,26,13,35,13.90
2016,04,26,13,36,13.80
2016,04,26,13,37,13.80
2016,04,26,13,38,13.90
2016,04,26,13,39,14.00
2016,04,26,13,40,14.00
2016,04,26,13,41,14.00
2016,04,26,13,42,14.00
2016,04,26,13,43,14.10
2016,04,26,13,44,14.00
2016,04,26,13,45,14.00
2016,04,26,13,46,13.90
2016,04,26,13,47,13.90
2016,04,26,13,48,13.90
2016,04,26,13,49,14.00
2016,04,26,13,50,14.10
2016,04,26,13,51,14.20
2016,04,26,13,52,14.30
2016,04,26,13,53,14.20
2016,04,26,13,54,14.20
2016,04,26,13,55,14.20
2016,04,26,13,56,14.10
2016,04,26,13,57,14.20
2016,04,26,13,58,14.40
2016,04,26,13,59,14.30
2016,04,26,14,00,14.20
2016,04,26,14,01,14.00
2016,04,26,14,02,13.90
2016,04,26,14,03,13.90
2016,04,26,14,04,14.00
2016,04,26,14,05,14.10
2016,04,26,14,06,14.30
2016,04,26,14,07,14.30
2016,04,26,14,08,14.20
2016,04,26,14,09,14.20
2016,04,26,14,10,14.10
2016,04,26,14,11,14.00
2016,04,26,14,12,13.90
2016,04,26,14,13,13.90
2016,04,26,14,14,13.90
2016,04,26,14,15,13.90
2016,04,26,14,16,14.00
2016,04,26,14,17,14.10
2016,04,26,14,18,14.20
2016,04,26,14,19,14.10
2016,04,26,14,20,14.10
2016,04,26,14,21,14.10
2016,04,26,14,22,14.20
2016,04,26,14,23,14.30
2016,04,26,14,24,14.20
2016,04,26,14,25,14.10
2016,04,26,14,26,14.00
2016,04,26,14,27,14.00
2016,04,26,14,28,14.10
2016,04,26,14,29,14.20
2016,04,26,14,30,14.30
2016,04,26,14,31,14.30
2016,04,26,14,32,14.20
2016,04,26,14,33,14.20
2016,04,26,14,34,14.30
2016,04,26,14,35,14.30
2016,04,26,14,36,14.30
2016,04,26,14,37,14.30
2016,04,26,14,38,14.40
2016,04,26,14,39,14.60
2016,04,26,14,40,14.70
2016,04,26,14,41,14.80
2016,04,26,14,42,14.70
2016,04,26,14,43,14.60
2016,04,26,14,44,14.40
2016,04,26,14,45,14.30
2016,04,26,14,46,14.10
2016,04,26,14,47,14.00
2016,04,26,14,48,13.90
2016,04,26,14,49,14.00
2016,04,26,14,50,14.00
2016,04,26,14,51,13.90
2016,04,26,14,52,13.80
2016,04,26,14,53,13.90
2016,04,26,14,54,13.80
2016,04,26,14,55,13.60
2016,04,26,14,56,13.60
2016,04,26,14,57,13.60
2016,04,26,14,58,13.60
2016,04,26,14,59,13.60
2016,04,26,15,00,13.60
2016,04,26,15,01,13.60
2016,04,26,15,02,13.60
2016,04,26,15,03,13.70
2016,04,26,15,04,13.70
2016,04,26,15,05,13.70
2016,04,26,15,06,13.60
2016,04,26,15,07,13.70
2016,04,26,15,08,13.70
2016,04,26,15,09,13.70
2016,04,26,15,10,13.80
2016,04,26,15,11,13.80
2016,04,26,15,12,13.80
2016,04,26,15,13,13.90
2016,04,26,15,14,13.90
2016,04,26,15,15,13.90
2016,04,26,15,16,13.90
2016,04,26,15,17,13.90
2016,04,26,15,18,13.90
2016,04,26,15,19,13.80
2016,04,26,15,20,13.80
2016,04,26,15,21,13.90
2016,04,26,15,22,13.90
2016,04,26,15,23,13.90
2016,04,26,15,24,13.80
2016,04,26,15,25,13.80
2016,04,26,15,26,13.90
2016,04,26,15,27,13.90
2016,04,26,15,28,13.90
2016,04,26,15,29,13.90
2016,04,26,15,30,13.90
2016,04,26,15,31,13.80
2016,04,26,15,32,13.80
2016,04,26,15,33,13.70
2016,04,26,15,34,13.60
2016,04,26,15,35,13.60
2016,04,26,15,36,13.60
2016,04,26,15,37,13.50
2016,04,26,15,38,13.50
2016,04,26,15,39,13.40
2016,04,26,15,40,13.40
2016,04,26,15,41,13.30
2016,04,26,15,42,13.20
2016,04,26,15,43,13.20
2016,04,26,15,44,13.20
2016,04,26,15,45,13.30
2016,04,26,15,46,13.30
2016,04,26,15,47,13.20
2016,04,26,15,48,13.10
2016,04,26,15,49,13.10
2016,04,26,15,50,13.20
2016,04,26,15,51,13.20
2016,04,26,15,52,13.30
2016,04,26,15,53,13.30
2016,04,26,15,54,13.30
2016,04,26,15,55,13.20
2016,04,26,15,56,13.10
2016,04,26,15,57,13.10
2016,04,26,15,58,13.10
2016,04,26,15,59,13.10
2016,04,26,16,00,13.10
2016,04,26,16,01,13.10
2016,04,26,16,02,13.20
2016,04,26,16,03,13.20
2016,04,26,16,04,13.30
2016,04,26,16,05,13.30
2016,04,26,16,06,13.30
2016,04,26,16,07,13.40
2016,04,26,16,08,13.50
2016,04,26,16,09,13.50
2016,04,26,16,10,13.50
2016,04,26,16,11,13.40
2016,04,26,16,12,13.30
2016,04,26,16,13,13.30
2016,04,26,16,14,13.30
2016,04,26,16,15,13.40
2016,04,26,16,16,13.40
2016,04,26,16,17,13.40
2016,04,26,16,18,13.40
2016,04,26,16,19,13.40
2016,04,26,16,20,13.40
2016,04,26,16,21,13.40
2016,04,26,16,22,13.30
2016,04,26,16,23,13.20
2016,04,26,16,24,13.20
2016,04,26,16,25,13.20
2016,04,26,16,26,13.20
2016,04,26,16,27,13.20
2016,04,26,16,28,13.30
2016,04,26,16,29,13.30
2016,04,26,16,30,13.30
2016,04,26,16,31,13.20
2016,04,26,16,32,13.20
2016,04,26,16,33,13.10
2016,04,26,16,34,13.10
2016,04,26,16,35,13.00
2016,04,26,16,36,12.90
2016,04,26,16,37,12.80
2016,04,26,16,38,12.70
2016,04,26,16,39,12.70
2016,04,26,16,40,12.70
2016,04,26,16,41,12.60
2016,04,26,16,42,12.60
2016,04,26,16,43,12.60
2016,04,26,16,44,12.60
2016,04,26,16,45,12.70
2016,04,26,16,46,12.70
2016,04,26,16,47,12.70
2016,04,26,16,48,12.70
2016,04,26,16,49,12.70
2016,04,26,16,50,12.70
2016,04,26,16,51,12.70
2016,04,26,16,52,12.60
2016,04,26,16,53,12.50
2016,04,26,16,54,12.40
2016,04,26,16,55,12.40
2016,04,26,16,56,12.30
2016,04,26,16,57,12.30
2016,04,26,16,58,12.30
2016,04,26,16,59,12.30
2016,04,26,17,00,12.40
2016,04,26,17,01,12.40
2016,04,26,17,02,12.50
2016,04,26,17,03,12.50
2016,04,26,17,04,12.50
2016,04,26,17,05,12.60
2016,04,26,17,06,12.60
2016,04,26,17,07,12.60
2016,04,26,17,08,12.60
2016,04,26,17,09,12.60
2016,04,26,17,10,12.60
2016,04,26,17,11,12.70
2016,04,26,17,12,12.70
2016,04,26,17,13,12.70
2016,04,26,17,14,12.70
2016,04,26,17,15,12.70
2016,04,26,17,16,12.70
2016,04,26,17,17,12.70
2016,04,26,17,18,12.70
2016,04,26,17,19,12.80
2016,04,26,17,20,12.80
2016,04,26,17,21,12.80
2016,04,26,17,22,12.80
2016,04,26,17,23,12.80
2016,04,26,17,24,12.80
2016,04,26,17,25,12.90
2016,04,26,17,26,12.90
2016,04,26,17,27,12.90
2016,04,26,17,28,12.90
2016,04,26,17,29,12.90
2016,04,26,17,30,12.90
2016,04,26,17,31,12.90
2016,04,26,17,32,12.90
2016,04,26,17,33,12.90
2016,04,26,17,34,12.90
2016,04,26,17,35,12.90
2016,04,26,17,36,13.00
2016,04,26,17,37,13.00
2016,04,26,17,38,13.00
2016,04,26,17,39,13.10
2016,04,26,17,40,13.10
2016,04,26,17,41,13.10
2016,04,26,17,42,13.10
2016,04,26,17,43,13.20